QPF
0.07 0.07 0.07 0.06 0.05 0.03 0.03 0.02 0.02 0.01 0.00 0.00 0.00 0.00 0.00 0.00 0.00 0.00 0.00 0.00 0.00 0.00 0.00 0.00 0.00 0.00 0.01 0.01 0.01 0.01 0.01 0.01 0.01 0.00 0.00 0.00 0.00 0.01 0.01 0.01 0.01 0.01 0.01
0.08 0.07 0.06 0.06 0.05 0.03 0.02 0.02 0.01 0.01 0.00 0.00 0.00 0.00 0.00 0.00 0.00 0.00 0.00 0.00 0.00 0.00 0.00 0.00 0.01 0.01 0.01 0.01 0.01 0.01 0.01 0.01 0.01 0.01 0.01 0.01 0.01 0.01 0.01 0.01 0.01 0.01 0.01
0.10 0.08 0.06 0.05 0.05 0.03 0.03 0.02 0.02 0.01 0.00 0.00 0.00 0.00 0.00 0.00 0.00 0.00 0.00 0.00 0.00 0.00 0.00 0.00 0.00 0.01 0.01 0.01 0.01 0.01 0.01 0.01 0.01 0.01 0.01 0.01 0.01 0.01 0.01 0.01 0.01 0.01 0.01
0.12 0.10 0.07 0.06 0.05 0.04 0.03 0.03 0.02 0.01 0.00 0.00 0.00 0.00 0.00 0.00 0.00 0.00 0.00 0.00 0.00 0.00 0.00 0.00 0.00 0.00 0.01 0.01 0.01 0.01 0.02 0.02 0.02 0.01 0.01 0.01 0.01 0.01 0.01 0.01 0.01 0.02 0.02
0.12 0.10 0.07 0.05 0.05 0.06 0.04 0.03 0.02 0.01 0.00 0.00 0.00 0.00 0.00 0.00 0.00 0.00 0.00 0.00 0.00 0.00 0.00 0.00 0.00 0.00 0.00 0.00 0.01 0.01 0.02 0.02 0.02 0.02 0.02 0.01 0.01 0.01 0.01 0.01 0.01 0.02 0.02
0.15 0.12 0.09 0.07 0.06 0.06 0.06 0.04 0.02 0.01 0.01 0.00 0.00 0.00 0.00 0.00 0.00 0.00 0.00 0.00 0.00 0.00 0.00 0.00 0.00 0.00 0.00 0.00 0.00 0.00 0.01 0.02 0.02 0.02 0.02 0.02 0.02 0.02 0.02 0.01 0.02 0.02 0.02
0.20 0.15 0.12 0.10 0.08 0.06 0.05 0.05 0.04 0.03 0.01 0.01 0.01 0.00 0.00 0.00 0.00 0.00 0.00 0.00 0.00 0.00 0.00 0.00 0.00 0.00 0.00 0.00 0.00 0.00 0.01 0.01 0.02 0.02 0.02 0.02 0.02 0.02 0.03 0.03 0.03 0.03 0.03
0.19 0.19 0.15 0.12 0.10 0.08 0.06 0.05 0.04 0.03 0.03 0.02 0.01 0.01 0.01 0.00 0.00 0.00 0.00 0.01 0.01 0.01 0.01 0.01 0.01 0.01 0.00 0.00 0.01 0.01 0.01 0.01 0.02 0.03 0.03 0.03 0.03 0.03 0.04 0.04 0.04 0.04 0.05
0.16 0.17 0.17 0.14 0.11 0.09 0.07 0.05 0.05 0.04 0.03 0.03 0.02 0.02 0.02 0.01 0.01 0.01 0.00 0.01 0.01 0.01 0.01 0.01 0.01 0.01 0.01 0.01 0.01 0.02 0.02 0.01 0.01 0.02 0.03 0.04 0.04 0.05 0.05 0.06 0.06 0.06 0.06
0.17 0.17 0.16 0.16 0.15 0.11 0.09 0.06 0.05 0.05 0.05 0.04 0.03 0.03 0.03 0.02 0.02 0.02 0.01 0.01 0.01 0.01 0.01 0.01 0.01 0.01 0.01 0.01 0.02 0.02 0.02 0.02 0.02 0.03 0.04 0.04 0.05 0.06 0.06 0.07 0.07 0.07 0.07
0.15 0.18 0.18 0.17 0.17 0.15 0.12 0.10 0.07 0.05 0.05 0.04 0.04 0.03 0.02 0.02 0.02 0.02 0.02 0.01 0.01 0.01 0.01 0.01 0.01 0.01 0.01 0.02 0.02 0.02 0.03 0.03 0.03 0.04 0.06 0.06 0.06 0.06 0.07 0.07 0.07 0.07 0.06
0.21 0.17 0.18 0.19 0.17 0.17 0.15 0.13 0.11 0.09 0.07 0.05 0.04 0.03 0.02 0.02 0.01 0.01 0.01 0.01 0.01 0.01 0.01 0.01 0.01 0.01 0.01 0.02 0.02 0.03 0.04 0.05 0.07 0.08 0.08 0.08 0.07 0.06 0.06 0.07 0.07 0.07 0.07
0.20 0.22 0.17 0.20 0.20 0.18 0.17 0.15 0.14 0.13 0.09 0.06 0.05 0.03 0.03 0.02 0.02 0.02 0.02 0.01 0.01 0.01 0.01 0.01 0.01 0.02 0.02 0.02 0.03 0.05 0.05 0.05 0.05 0.05 0.05 0.06 0.07 0.06 0.06 0.07 0.08 0.08 0.07
0.16 0.19 0.21 0.18 0.20 0.22 0.20 0.17 0.14 0.13 0.12 0.09 0.05 0.04 0.03 0.03 0.03 0.02 0.02 0.02 0.02 0.01 0.01 0.01 0.01 0.02 0.02 0.03 0.03 0.04 0.03 0.03 0.03 0.03 0.04 0.05 0.05 0.06 0.06 0.07 0.08 0.07 0.07
0.15 0.14 0.18 0.19 0.17 0.19 0.18 0.16 0.14 0.12 0.12 0.11 0.08 0.05 0.03 0.03 0.04 0.04 0.03 0.03 0.03 0.03 0.01 0.01 0.01 0.01 0.01 0.02 0.03 0.04 0.04 0.05 0.05 0.06 0.06 0.07 0.08 0.09 0.10 0.10 0.10 0.09 0.08
0.14 0.14 0.15 0.17 0.16 0.16 0.16 0.15 0.15 0.13 0.12 0.12 0.12 0.08 0.06 0.04 0.04 0.04 0.05 0.04 0.04 0.04 0.03 0.01 0.01 0.01 0.01 0.02 0.03 0.04 0.05 0.06 0.06 0.06 0.05 0.05 0.05 0.06 0.08 0.09 0.10 0.10 0.09
0.14 0.13 0.12 0.13 0.15 0.15 0.14 0.13 0.12 0.13 0.13 0.12 0.12 0.11 0.08 0.06 0.06 0.06 0.06 0.06 0.06 0.06 0.05 0.03 0.02 0.02 0.02 0.02 0.03 0.03 0.04 0.05 0.05 0.05 0.05 0.06 0.06 0.05 0.05 0.06 0.07 0.07 0.08
0.11 0.12 0.11 0.10 0.12 0.15 0.15 0.14 0.12 0.12 0.12 0.11 0.10 0.11 0.10 0.08 0.07 0.07 0.07 0.06 0.06 0.06 0.06 0.05 0.03 0.03 0.03 0.03 0.03 0.04 0.04 0.05 0.05 0.06 0.06 0.06 0.07 0.07 0.07 0.06 0.07 0.07 0.06
0.10 0.10 0.11 0.11 0.10 0.11 0.12 0.12 0.12 0.12 0.12 0.11 0.08 0.08 0.07 0.07 0.07 0.06 0.06 0.06 0.06 0.06 0.07 0.07 0.05 0.04 0.04 0.04 0.05 0.06 0.05 0.06 0.06 0.07 0.08 0.08 0.08 0.08 0.09 0.09 0.08 0.07 0.06
0.13 0.12 0.11 0.10 0.10 0.09 0.10 0.11 0.11 0.11 0.11 0.11 0.10 0.08 0.07 0.06 0.06 0.05 0.05 0.06 0.06 0.08 0.09 0.09 0.08 0.07 0.06 0.06 0.07 0.08 0.08 0.08 0.09 0.09 0.09 0.09 0.08 0.07 0.07 0.08 0.07 0.06 0.05
0.15 0.15 0.15 0.12 0.11 0.11 0.10 0.11 0.11 0.11 0.11 0.11 0.11 0.10 0.09 0.08 0.07 0.06 0.06 0.06 0.06 0.07 0.08 0.10 0.09 0.09 0.08 0.08 0.08 0.08 0.08 0.10 0.11 0.12 0.10 0.10 0.09 0.07 0.06 0.06 0.07 0.07 0.06
0.17 0.17 0.20 0.19 0.14 0.11 0.11 0.11 0.11 0.12 0.12 0.13 0.13 0.12 0.10 0.10 0.08 0.07 0.07 0.07 0.07 0.07 0.08 0.08 0.08 0.07 0.07 0.07 0.08 0.10 0.10 0.11 0.11 0.11 0.11 0.10 0.08 0.08 0.07 0.06 0.06 0.07 0.06
0.18 0.17 0.20 0.21 0.19 0.15 0.13 0.12 0.12 0.12 0.12 0.13 0.13 0.12 0.11 0.10 0.11 0.09 0.08 0.08 0.09 0.09 0.09 0.08 0.08 0.07 0.07 0.08 0.11 0.12 0.11 0.09 0.08 0.09 0.10 0.10 0.09 0.07 0.07 0.06 0.06 0.05 0.05
0.15 0.15 0.16 0.17 0.17 0.16 0.14 0.13 0.13 0.12 0.12 0.13 0.13 0.13 0.12 0.11 0.10 0.10 0.11 0.11 0.11 0.11 0.10 0.09 0.09 0.09 0.10 0.12 0.15 0.16 0.15 0.13 0.12 0.12 0.11 0.10 0.10 0.09 0.08 0.07 0.07 0.05 0.04
0.10 0.11 0.11 0.12 0.13 0.14 0.13 0.12 0.12 0.11 0.12 0.12 0.13 0.14 0.13 0.13 0.13 0.13 0.11 0.11 0.10 0.09 0.10 0.10 0.10 0.11 0.12 0.14 0.15 0.14 0.14 0.14 0.11 0.09 0.07 0.07 0.08 0.08 0.07 0.06 0.06 0.06 0.05
0.06 0.08 0.08 0.08 0.07 0.10 0.12 0.11 0.11 0.10 0.11 0.12 0.12 0.13 0.13 0.12 0.13 0.12 0.11 0.10 0.11 0.09 0.09 0.09 0.10 0.10 0.11 0.13 0.17 0.15 0.14 0.12 0.10 0.08 0.06 0.05 0.06 0.06 0.06 0.05 0.05 0.05 0.05
MSLP
1011.48 1011.90 1012.35 1012.85 1013.38 1013.95 1014.53 1015.12 1015.69 1016.23 1016.72 1017.15 1017.51 1017.83 1018.11 1018.36 1018.58 1018.80 1019.01 1019.21 1019.39 1019.57 1019.72 1019.86 1020.00 1020.14 1020.27 1020.39 1020.50 1020.60 1020.66 1020.71 1020.72 1020.72 1020.71 1020.71 1020.71 1020.73 1020.77 1020.80 1020.83 1020.85 1020.85
1010.81 1011.21 1011.68 1012.21 1012.80 1013.44 1014.11 1014.79 1015.46 1016.08 1016.64 1017.13 1017.54 1017.87 1018.15 1018.38 1018.58 1018.77 1018.94 1019.11 1019.27 1019.42 1019.57 1019.70 1019.84 1019.96 1020.09 1020.20 1020.29 1020.36 1020.41 1020.42 1020.42 1020.39 1020.36 1020.33 1020.31 1020.32 1020.34 1020.37 1020.41 1020.44 1020.47
1010.06 1010.42 1010.88 1011.43 1012.07 1012.79 1013.56 1014.35 1015.12 1015.85 1016.50 1017.05 1017.50 1017.86 1018.14 1018.36 1018.53 1018.68 1018.82 1018.95 1019.08 1019.22 1019.35 1019.49 1019.62 1019.75 1019.87 1019.98 1020.08 1020.14 1020.18 1020.19 1020.17 1020.13 1020.08 1020.03 1019.99 1019.97 1019.97 1019.99 1020.02 1020.05 1020.09
1009.29 1009.59 1010.01 1010.56 1011.24 1012.01 1012.87 1013.75 1014.63 1015.46 1016.20 1016.84 1017.35 1017.75 1018.05 1018.26 1018.42 1018.54 1018.65 1018.76 1018.87 1018.99 1019.13 1019.26 1019.41 1019.55 1019.68 1019.80 1019.90 1019.98 1020.02 1020.03 1020.01 1019.97 1019.91 1019.85 1019.79 1019.75 1019.72 1019.70 1019.70 1019.71 1019.73
1008.55 1008.77 1009.14 1009.66 1010.33 1011.13 1012.03 1012.99 1013.96 1014.88 1015.72 1016.43 1017.02 1017.48 1017.82 1018.06 1018.23 1018.36 1018.47 1018.58 1018.69 1018.82 1018.96 1019.11 1019.26 1019.41 1019.55 1019.68 1019.79 1019.87 1019.92 1019.95 1019.94 1019.90 1019.85 1019.78 1019.71 1019.64 1019.57 1019.51 1019.47 1019.44 1019.42
1007.89 1008.02 1008.30 1008.76 1009.39 1010.17 1011.08 1012.08 1013.10 1014.09 1015.01 1015.82 1016.49 1017.03 1017.45 1017.75 1017.98 1018.15 1018.29 1018.43 1018.58 1018.73 1018.89 1019.06 1019.22 1019.38 1019.53 1019.65 1019.76 1019.84 1019.89 1019.92 1019.92 1019.90 1019.86 1019.79 1019.71 1019.62 1019.52 1019.42 1019.33 1019.25 1019.18
1007.32 1007.36 1007.55 1007.91 1008.46 1009.19 1010.06 1011.05 1012.09 1013.12 1014.11 1015.00 1015.77 1016.41 1016.92 1017.32 1017.64 1017.90 1018.12 1018.33 1018.53 1018.73 1018.93 1019.13 1019.31 1019.46 1019.60 1019.71 1019.79 1019.85 1019.90 1019.92 1019.93 1019.91 1019.88 1019.83 1019.75 1019.65 1019.53 1019.39 1019.26 1019.14 1019.03
1006.82 1006.78 1006.88 1007.14 1007.59 1008.22 1009.02 1009.96 1010.98 1012.03 1013.06 1014.02 1014.88 1015.62 1016.25 1016.77 1017.21 1017.58 1017.92 1018.22 1018.51 1018.79 1019.04 1019.28 1019.47 1019.63 1019.74 1019.82 1019.87 1019.90 1019.91 1019.92 1019.92 1019.91 1019.89 1019.85 1019.79 1019.70 1019.57 1019.43 1019.28 1019.12 1018.99
1006.32 1006.25 1006.27 1006.43 1006.77 1007.30 1008.01 1008.87 1009.85 1010.88 1011.93 1012.93 1013.87 1014.71 1015.45 1016.10 1016.66 1017.16 1017.62 1018.05 1018.44 1018.81 1019.14 1019.42 1019.65 1019.81 1019.91 1019.96 1019.97 1019.95 1019.92 1019.90 1019.89 1019.88 1019.88 1019.86 1019.82 1019.75 1019.65 1019.52 1019.37 1019.21 1019.07
1005.76 1005.68 1005.66 1005.75 1006.01 1006.44 1007.05 1007.84 1008.75 1009.75 1010.78 1011.81 1012.79 1013.71 1014.54 1015.29 1015.97 1016.59 1017.17 1017.71 1018.22 1018.70 1019.12 1019.47 1019.75 1019.94 1020.04 1020.07 1020.05 1020.00 1019.93 1019.88 1019.85 1019.84 1019.84 1019.85 1019.84 1019.81 1019.75 1019.65 1019.53 1019.41 1019.28
1005.07 1005.02 1004.99 1005.06 1005.26 1005.62 1006.16 1006.87 1007.72 1008.67 1009.68 1010.71 1011.71 1012.66 1013.54 1014.36 1015.12 1015.84 1016.51 1017.16 1017.78 1018.37 1018.89 1019.34 1019.70 1019.94 1020.08 1020.13 1020.10 1020.03 1019.95 1019.87 1019.82 1019.81 1019.82 1019.85 1019.88 1019.89 1019.88 1019.83 1019.76 1019.67 1019.58
1004.21 1004.22 1004.23 1004.30 1004.49 1004.82 1005.32 1005.98 1006.77 1007.68 1008.66 1009.66 1010.65 1011.60 1012.50 1013.35 1014.15 1014.91 1015.66 1016.39 1017.11 1017.79 1018.43 1018.99 1019.45 1019.79 1020.01 1020.11 1020.12 1020.07 1019.99 1019.90 1019.85 1019.83 1019.85 1019.90 1019.95 1020.00 1020.03 1020.03 1020.01 1019.97 1019.93
1003.18 1003.26 1003.34 1003.47 1003.68 1004.02 1004.51 1005.14 1005.91 1006.78 1007.73 1008.70 1009.66 1010.58 1011.46 1012.30 1013.10 1013.88 1014.65 1015.44 1016.23 1017.01 1017.75 1018.44 1019.02 1019.49 1019.82 1020.02 1020.11 1020.11 1020.06 1019.99 1019.94 1019.92 1019.94 1019.98 1020.05 1020.12 1020.18 1020.22 1020.25 1020.25 1020.24
1002.06 1002.22 1002.37 1002.56 1002.83 1003.21 1003.71 1004.35 1005.11 1005.97 1006.89 1007.82 1008.75 1009.64 1010.48 1011.28 1012.05 1012.81 1013.59 1014.40 1015.23 1016.09 1016.94 1017.74 1018.46 1019.07 1019.54 1019.86 1020.06 1020.14 1020.15 1020.12 1020.09 1020.07 1020.08 1020.11 1020.17 1020.24 1020.31 1020.38 1020.42 1020.46 1020.47
1000.95 1001.17 1001.38 1001.64 1001.96 1002.39 1002.93 1003.59 1004.37 1005.22 1006.13 1007.05 1007.94 1008.80 1009.60 1010.36 1011.09 1011.82 1012.58 1013.38 1014.25 1015.15 1016.08 1016.99 1017.83 1018.58 1019.19 1019.65 1019.97 1020.16 1020.25 1020.27 1020.26 1020.25 1020.25 1020.26 1020.30 1020.35 1020.40 1020.46 1020.51 1020.55 1020.58
1000.01 1000.24 1000.49 1000.78 1001.15 1001.62 1002.19 1002.87 1003.66 1004.52 1005.43 1006.34 1007.23 1008.06 1008.84 1009.57 1010.26 1010.97 1011.70 1012.50 1013.36 1014.29 1015.27 1016.25 1017.20 1018.06 1018.80 1019.40 1019.84 1020.14 1020.32 1020.40 1020.43 1020.42 1020.41 1020.40 1020.40 1020.41 1020.43 1020.46 1020.50 1020.54 1020.56
999.39 999.58 999.82 1000.11 1000.48 1000.94 1001.52 1002.21 1002.99 1003.86 1004.77 1005.68 1006.57 1007.40 1008.18 1008.90 1009.59 1010.28 1011.00 1011.78 1012.64 1013.57 1014.57 1015.60 1016.61 1017.55 1018.39 1019.09 1019.64 1020.04 1020.31 1020.46 1020.53 1020.54 1020.52 1020.49 1020.46 1020.43 1020.42 1020.41 1020.42 1020.43 1020.45
999.19 999.30 999.46 999.70 1000.02 1000.44 1000.97 1001.62 1002.37 1003.21 1004.10 1005.02 1005.91 1006.76 1007.56 1008.30 1009.00 1009.70 1010.42 1011.20 1012.05 1012.98 1013.98 1015.01 1016.05 1017.04 1017.94 1018.71 1019.35 1019.84 1020.18 1020.41 1020.53 1020.58 1020.58 1020.54 1020.49 1020.43 1020.37 1020.33 1020.31 1020.30 1020.30
999.45 999.43 999.49 999.61 999.82 1000.13 1000.56 1001.12 1001.79 1002.56 1003.41 1004.30 1005.19 1006.06 1006.88 1007.66 1008.40 1009.13 1009.87 1010.66 1011.51 1012.44 1013.42 1014.45 1015.48 1016.49 1017.42 1018.25 1018.94 1019.51 1019.93 1020.23 1020.42 1020.53 1020.56 1020.54 1020.49 1020.42 1020.35 1020.28 1020.23 1020.20 1020.19
1000.13 999.97 999.87 999.84 999.90 1000.05 1000.33 1000.73 1001.26 1001.92 1002.67 1003.50 1004.35 1005.22 1006.06 1006.88 1007.67 1008.45 1009.24 1010.06 1010.92 1011.85 1012.82 1013.84 1014.86 1015.87 1016.81 1017.67 1018.42 1019.05 1019.56 1019.94 1020.22 1020.39 1020.49 1020.52 1020.50 1020.45 1020.37 1020.29 1020.22 1020.17 1020.14
1001.14 1000.82 1000.56 1000.35 1000.22 1000.18 1000.25 1000.46 1000.80 1001.28 1001.89 1002.60 1003.38 1004.21 1005.05 1005.89 1006.73 1007.57 1008.41 1009.28 1010.18 1011.13 1012.11 1013.13 1014.15 1015.15 1016.11 1017.00 1017.80 1018.50 1019.08 1019.56 1019.93 1020.20 1020.39 1020.49 1020.53 1020.51 1020.46 1020.38 1020.30 1020.23 1020.18
1002.32 1001.86 1001.44 1001.06 1000.73 1000.48 1000.33 1000.30 1000.41 1000.68 1001.09 1001.64 1002.30 1003.05 1003.85 1004.69 1005.56 1006.45 1007.35 1008.28 1009.24 1010.23 1011.25 1012.29 1013.33 1014.35 1015.34 1016.27 1017.12 1017.88 1018.56 1019.13 1019.61 1019.99 1020.27 1020.47 1020.58 1020.62 1020.60 1020.54 1020.46 1020.37 1020.30
1003.51 1002.94 1002.38 1001.85 1001.34 1000.89 1000.52 1000.25 1000.12 1000.15 1000.34 1000.70 1001.20 1001.82 1002.55 1003.36 1004.23 1005.16 1006.12 1007.12 1008.14 1009.20 1010.28 1011.36 1012.45 1013.51 1014.54 1015.52 1016.43 1017.27 1018.03 1018.70 1019.28 1019.77 1020.16 1020.45 1020.65 1020.76 1020.78 1020.75 1020.67 1020.56 1020.46
1004.56 1003.91 1003.27 1002.61 1001.97 1001.35 1000.78 1000.31 999.95 999.75 999.72 999.86 1000.18 1000.66 1001.29 1002.04 1002.89 1003.83 1004.83 1005.89 1007.00 1008.13 1009.28 1010.44 1011.59 1012.71 1013.80 1014.84 1015.81 1016.72 1017.56 1018.32 1018.99 1019.57 1020.06 1020.44 1020.72 1020.89 1020.97 1020.96 1020.89 1020.77 1020.63
1005.39 1004.70 1003.99 1003.27 1002.53 1001.79 1001.08 1000.44 999.90 999.51 999.28 999.23 999.38 999.72 1000.23 1000.90 1001.71 1002.65 1003.68 1004.79 1005.96 1007.17 1008.40 1009.63 1010.85 1012.04 1013.19 1014.29 1015.32 1016.29 1017.19 1018.01 1018.75 1019.40 1019.96 1020.42 1020.76 1021.00 1021.13 1021.15 1021.09 1020.97 1020.80
1005.96 1005.25 1004.52 1003.76 1002.97 1002.16 1001.37 1000.62 999.96 999.42 999.05 998.86 998.87 999.09 999.50 1000.10 1000.87 1001.79 1002.83 1003.97 1005.19 1006.46 1007.75 1009.05 1010.33 1011.58 1012.78 1013.92 1015.00 1016.00 1016.94 1017.79 1018.57 1019.26 1019.87 1020.37 1020.77 1021.06 1021.23 1021.29 1021.26 1021.14 1020.96
Thickness
5693 5693 5693 5693 5692 5692 5691 5690 5689 5688 5687 5686 5686 5685 5685 5684 5683 5683 5682 5682 5681 5680 5679 5678 5676 5675 5673 5671 5669 5668 5666 5664 5662 5660 5659 5657 5655 5653 5651 5649 5648 5646 5644
5688 5688 5688 5687 5687 5687 5687 5686 5685 5683 5682 5682 5681 5681 5681 5680 5680 5679 5678 5678 5677 5676 5675 5674 5673 5671 5670 5668 5666 5664 5662 5660 5658 5656 5654 5652 5651 5649 5647 5645 5644 5642 5640
5683 5683 5683 5683 5683 5682 5681 5680 5679 5678 5677 5677 5677 5677 5676 5676 5676 5675 5674 5673 5673 5672 5671 5670 5669 5668 5666 5665 5663 5661 5659 5657 5654 5652 5650 5648 5646 5645 5643 5641 5640 5638 5636
5677 5678 5678 5678 5678 5677 5676 5675 5674 5672 5671 5671 5671 5671 5671 5671 5671 5670 5669 5669 5668 5667 5667 5665 5664 5663 5662 5661 5659 5657 5655 5653 5651 5648 5646 5644 5642 5641 5639 5637 5636 5634 5632
5671 5672 5673 5673 5673 5673 5672 5671 5669 5668 5667 5665 5665 5665 5665 5666 5665 5665 5665 5664 5663 5663 5662 5661 5660 5659 5657 5656 5654 5652 5650 5648 5646 5644 5642 5640 5638 5636 5635 5633 5631 5629 5628
5664 5666 5667 5668 5668 5667 5667 5666 5664 5663 5662 5661 5659 5659 5659 5660 5660 5660 5660 5659 5658 5657 5656 5655 5654 5653 5652 5650 5648 5646 5645 5643 5641 5639 5638 5636 5634 5632 5630 5629 5627 5625 5623
5657 5659 5661 5663 5663 5662 5663 5662 5659 5656 5655 5654 5651 5650 5652 5653 5653 5654 5654 5653 5653 5652 5650 5649 5647 5646 5645 5644 5642 5640 5639 5637 5636 5634 5633 5631 5629 5627 5626 5624 5622 5620 5618
5650 5653 5655 5657 5658 5657 5656 5656 5655 5651 5649 5648 5646 5643 5641 5643 5646 5648 5647 5647 5647 5645 5643 5642 5640 5639 5638 5637 5635 5633 5632 5631 5630 5629 5627 5625 5624 5622 5621 5619 5617 5615 5613
5643 5647 5650 5651 5652 5652 5651 5651 5650 5648 5645 5642 5641 5639 5635 5636 5638 5640 5640 5640 5639 5637 5636 5634 5632 5631 5630 5629 5627 5626 5625 5623 5622 5622 5621 5619 5618 5616 5615 5613 5611 5609 5607
5636 5639 5643 5644 5645 5646 5647 5646 5645 5643 5641 5637 5634 5635 5634 5633 5628 5630 5631 5631 5630 5630 5628 5626 5624 5622 5620 5619 5619 5618 5617 5615 5614 5613 5613 5612 5611 5609 5607 5606 5604 5602 5599
5627 5631 5635 5637 5639 5640 5641 5640 5638 5637 5636 5633 5630 5628 5625 5624 5622 5620 5621 5623 5621 5621 5619 5618 5616 5614 5612 5611 5610 5609 5608 5606 5605 5605 5605 5604 5603 5601 5599 5597 5595 5593 5591
5618 5622 5627 5630 5632 5633 5633 5633 5632 5630 5628 5626 5624 5621 5619 5616 5615 5612 5611 5611 5611 5612 5610 5609 5608 5607 5605 5603 5602 5600 5599 5597 5596 5596 5595 5595 5593 5591 5590 5588 5587 5585 5583
5609 5615 5619 5621 5624 5625 5625 5625 5624 5622 5621 5619 5616 5614 5612 5610 5608 5605 5602 5601 5600 5602 5601 5601 5601 5599 5597 5595 5593 5592 5590 5588 5587 5586 5585 5585 5583 5581 5579 5578 5577 5575 5573
5602 5607 5610 5612 5615 5616 5616 5616 5616 5613 5611 5610 5608 5606 5604 5602 5600 5598 5595 5591 5589 5591 5593 5594 5592 5591 5588 5586 5585 5583 5581 5579 5578 5576 5576 5574 5572 5570 5569 5567 5566 5565 5563
5595 5599 5601 5603 5605 5606 5606 5606 5606 5604 5602 5600 5599 5597 5595 5594 5592 5590 5588 5586 5582 5581 5587 5588 5582 5582 5579 5576 5575 5572 5571 5570 5568 5566 5565 5564 5562 5561 5559 5557 5556 5554 5553
5587 5590 5592 5593 5595 5596 5596 5596 5596 5594 5591 5590 5588 5587 5587 5585 5583 5581 5579 5578 5576 5575 5576 5579 5575 5573 5569 5566 5564 5562 5561 5559 5557 5556 5555 5554 5553 5551 5550 5548 5546 5545 5544
5577 5580 5582 5584 5586 5586 5586 5586 5586 5584 5582 5581 5580 5578 5578 5576 5574 5572 5569 5568 5566 5565 5564 5566 5563 5561 5558 5555 5552 5550 5549 5547 5547 5545 5544 5543 5541 5540 5539 5538 5537 5535 5534
5569 5572 5573 5574 5576 5576 5576 5576 5575 5573 5571 5571 5570 5568 5567 5566 5564 5563 5561 5559 5557 5556 5553 5553 5551 5548 5546 5543 5541 5539 5537 5537 5536 5535 5533 5532 5530 5529 5529 5528 5526 5525 5524
5560 5561 5562 5564 5565 5565 5565 5565 5566 5564 5562 5561 5561 5559 5558 5556 5555 5553 5552 5550 5548 5546 5544 5541 5540 5536 5533 5531 5528 5527 5526 5524 5524 5523 5522 5520 5519 5518 5517 5517 5516 5515 5513
5549 5551 5552 5553 5554 5554 5554 5555 5555 5553 5553 5552 5551 5550 5549 5547 5546 5545 5543 5541 5539 5536 5534 5531 5528 5525 5522 5519 5516 5515 5513 5512 5512 5511 5511 5509 5508 5507 5506 5506 5506 5504 5503
5541 5542 5543 5544 5543 5543 5544 5544 5544 5543 5543 5542 5542 5540 5539 5538 5537 5536 5534 5532 5530 5527 5523 5521 5518 5514 5511 5507 5507 5505 5503 5502 5500 5500 5499 5498 5497 5497 5496 5495 5494 5493 5492
5531 5532 5532 5532 5531 5532 5533 5533 5533 5532 5531 5530 5531 5530 5529 5528 5527 5526 5524 5522 5520 5517 5514 5511 5508 5505 5503 5500 5497 5495 5493 5490 5490 5490 5488 5487 5485 5485 5484 5484 5484 5482 5482
5520 5520 5521 5520 5520 5520 5521 5521 5521 5520 5520 5519 5518 5518 5518 5517 5515 5514 5513 5510 5508 5506 5505 5502 5499 5498 5494 5493 5489 5486 5483 5482 5482 5480 5478 5476 5473 5472 5473 5473 5473 5472 5472
5508 5509 5509 5509 5508 5507 5507 5508 5508 5507 5507 5506 5505 5505 5504 5503 5501 5500 5499 5497 5495 5494 5493 5491 5490 5488 5486 5484 5482 5480 5476 5471 5467 5466 5467 5465 5462 5461 5461 5461 5461 5461 5462
5495 5495 5495 5495 5494 5494 5493 5493 5493 5493 5492 5492 5492 5491 5490 5490 5489 5487 5485 5483 5482 5480 5479 5478 5477 5476 5475 5473 5471 5466 5462 5460 5457 5454 5453 5453 5451 5449 5449 5449 5450 5452 5452
5482 5482 5481 5480 5480 5479 5479 5479 5478 5477 5477 5477 5477 5476 5475 5475 5474 5472 5470 5469 5468 5467 5465 5464 5463 5463 5462 5461 5459 5458 5455 5452 5448 5445 5443 5442 5440 5439 5438 5438 5439 5441 5442